KF5WKW Weather Reports


Display with metric or nautical units.
time (UTC)temp
F
wind
direction
speed
MPH
gust
MPH
rain 1hr
in
rain 24hr
in
rain mn
in
humidity
%
barometer
mb
20260510231517 79 158 1.0 5.0 0.00 0.03 0.01 82 1011.8
20260510230517 80 158 1.0 5.0 0.00 0.03 0.01 80 1011.9
20260510225517 81 180 1.0 4.0 0.00 0.04 0.01 78 1011.7
20260510224517 82 135 2.0 8.0 0.00 0.05 0.01 77 1011.8
20260510223517 83 158 1.0 5.0 0.00 0.05 0.01 75 1011.7
20260510222518 83 158 1.0 4.0 0.00 0.06 0.01 76 1011.7
20260510221518 83 158 2.0 8.0 0.00 0.06 0.01 75 1011.7
20260510220517 83 135 2.0 7.0 0.00 0.06 0.01 75 1011.7
20260510215518 84 135 3.0 7.0 0.00 0.06 0.01 74 1011.6
20260510214517 84 180 2.0 6.0 0.00 0.06 0.01 74 1011.5
20260510213518 85 203 2.0 8.0 0.00 0.06 0.01 73 1011.6
20260510212517 85 135 3.0 7.0 0.00 0.06 0.01 73 1011.6
20260510211517 86 158 2.0 6.0 0.00 0.06 0.01 72 1011.5
20260510210517 87 203 2.0 8.0 0.00 0.07 0.01 71 1011.4
20260510205537 87 158 2.0 6.0 0.00 0.07 0.01 70 1011.4
20260510204537 87 135 1.0 6.0 0.00 0.07 0.01 70 1011.4
20260510203516 86 135 2.0 8.0 0.00 0.07 0.01 70 1011.5
20260510202557 86 158 2.0 5.0 0.00 0.07 0.01 71 1011.4
20260510201517 86 135 1.0 5.0 0.00 0.07 0.01 72 1011.5
20260510200556 86 203 1.0 7.0 0.00 0.07 0.01 72 1011.7
20260510195537 87 135 1.0 6.0 0.00 0.07 0.01 71 1011.8
20260510194517 86 135 2.0 5.0 0.00 0.07 0.01 75 1011.6
20260510193516 86 158 1.0 3.0 0.00 0.07 0.01 74 1011.8
20260510192517 85 158 3.0 8.0 0.00 0.07 0.01 75 1011.9
20260510191517 85 135 2.0 5.0 0.00 0.07 0.01 76 1012.0
20260510190516 85 135 1.0 4.0 0.00 0.07 0.01 75 1012.2
20260510185517 84 0 1.0 5.0 0.00 0.08 0.01 76 1012.3
20260510184537 85 0.0 2.0 0.00 0.08 0.01 72 1012.5
20260510183517 87 135 1.0 5.0 0.00 0.08 0.01 70 1012.6
20260510182516 87 0.0 2.0 0.00 0.08 0.01 72 1012.5
20260510181516 86 0.0 2.0 0.00 0.08 0.01 71 1012.7
20260510180536 86 0.0 1.0 0.00 0.08 0.01 71 1012.8
20260510175516 84 158 1.0 4.0 0.00 0.08 0.01 74 1012.7
20260510174516 83 0.0 2.0 0.00 0.08 0.01 79 1012.7
20260510173516 82 315 2.0 4.0 0.00 0.08 0.01 76 1012.8
20260510172516 83 0.0 2.0 0.00 0.08 0.01 75 1012.8
20260510171516 81 0 1.0 3.0 0.00 0.08 0.01 77 1012.9
20260510170536 81 0 3.0 7.0 0.00 0.08 0.01 77 1013.0
20260510165517 81 338 1.0 5.0 0.00 0.08 0.01 77 1012.9
20260510164516 81 315 2.0 5.0 0.00 0.08 0.01 77 1013.2
20260510163516 81 0.0 2.0 0.00 0.08 0.01 79 1013.1
20260510162516 80 0.0 2.0 0.00 0.08 0.01 82 1013.1
20260510161517 80 0.0 1.0 0.00 0.11 0.01 84 1013.2
20260510160516 79 158 1.0 3.0 0.00 0.15 0.01 84 1013.0
20260510155516 79 0.0 2.0 0.00 0.19 0.01 83 1013.0
20260510154516 78 0.0 3.0 0.00 0.29 0.01 87 1013.0
20260510153517 77 0.0 3.0 0.00 0.50 0.01 89 1013.2
20260510152517 77 23 1.0 3.0 0.00 0.60 0.01 88 1013.3
20260510151516 77 0.0 1.0 0.00 0.87 0.01 91 1013.2
20260510150536 75 0.0 2.0 0.00 1.02 0.01 95 1013.2
20260510145536 75 0.0 2.0 0.00 1.05 0.01 95 1013.3
20260510144516 74 0.0 1.0 0.00 1.05 0.01 97 1013.5
20260510143516 73 0.0 3.0 0.00 1.05 0.01 97 1013.6
20260510142516 73 0.0 2.0 0.00 1.05 0.01 98 1013.4
20260510141516 73 0.0 1.0 0.00 1.05 0.01 99 1013.3
20260510140556 71 0.0 0.0 0.00 1.05 0.01 99 1013.2
20260510135516 70 0.0 2.0 0.00 1.05 0.01 99 1013.2
20260510134536 70 0.0 2.0 0.00 1.05 0.01 99 1013.2
20260510133517 69 315 1.0 3.0 0.00 1.05 0.01 99 1013.0
20260510132536 68 0.0 1.0 0.00 1.05 0.01 100 1013.2
20260510131516 68 0.0 1.0 0.00 1.05 0.01 100 1012.9
20260510130516 67 0.0 3.0 0.00 1.06 0.01 100 1012.9
20260510125516 67 0.0 3.0 0.00 1.06 0.01 100 1012.9
20260510124516 67 0.0 2.0 0.00 1.06 0.01 100 1012.7
20260510123516 66 0.0 2.0 0.00 1.06 0.01 100 1012.5
20260510122516 66 315 1.0 2.0 0.00 1.06 0.01 100 1012.4
20260510121516 66 0.0 2.0 0.00 1.06 0.01 100 1012.3
20260510120516 66 0.0 2.0 0.00 1.06 0.01 100 1012.0
20260510115516 65 0.0 2.0 0.00 1.06 0.01 100 1011.9
20260510114537 65 0.0 1.0 0.00 1.06 0.01 100 1011.8
20260510113515 65 0.0 0.0 0.00 1.06 0.01 100 1011.7
20260510112515 65 0.0 0.0 0.00 1.07 0.01 100 1011.8
20260510111515 65 0.0 0.0 0.00 1.07 0.01 100 1011.6
20260510110515 65 0.0 0.0 0.00 1.07 0.01 100 1011.4
20260510105515 65 0.0 0.0 0.00 1.07 0.01 100 1011.2
20260510104557 65 0.0 0.0 0.00 1.07 0.01 100 1011.0
20260510103519 65 0.0 0.0 0.00 1.07 0.01 100 1010.7
20260510102518 65 0.0 0.0 0.00 1.07 0.01 100 1010.6
20260510101517 66 0.0 0.0 0.00 1.07 0.01 100 1010.7
20260510100517 66 0.0 0.0 0.00 1.07 0.01 100 1010.6
20260510095517 66 0.0 0.0 0.00 1.07 0.01 100 1010.5
20260510094517 66 0.0 0.0 0.00 1.07 0.01 100 1010.4
20260510093517 65 0.0 0.0 0.00 1.08 0.01 100 1010.2
20260510092537 65 0.0 0.0 0.00 1.08 0.01 100 1010.0
20260510091537 65 0.0 0.0 0.00 1.08 0.01 100 1010.0
20260510090517 65 0.0 1.0 0.00 1.08 0.01 100 1009.9
20260510085517 65 0.0 0.0 0.00 1.08 0.01 100 1010.0
20260510084517 66 0.0 0.0 0.01 1.08 0.01 100 1009.7
20260510083517 66 0.0 0.0 0.01 1.08 0.01 100 1009.5
20260510082537 66 0.0 0.0 0.01 1.08 0.01 100 1009.3
20260510081517 67 0.0 0.0 0.01 1.08 0.01 100 1009.1
20260510080517 67 0.0 0.0 0.01 1.08 0.01 100 1009.1
20260510075517 67 0.0 1.0 0.01 1.08 0.01 100 1009.0
20260510074517 67 0.0 0.0 0.00 1.07 0.00 100 1009.3
20260510073517 67 0.0 0.0 0.00 1.07 0.00 100 1009.1
20260510072517 67 0.0 0.0 0.00 1.07 0.00 100 1009.0
20260510071517 68 0.0 0.0 0.00 1.07 0.00 100 1009.0
20260510070517 68 0.0 1.0 0.00 1.07 0.00 100 1009.2
20260510065518 68 0.0 0.0 0.00 1.07 0.00 100 1009.3
20260510064517 68 0.0 1.0 0.00 1.07 0.00 100 1009.4
20260510063517 68 0.0 0.0 0.00 1.07 0.00 100 1009.3
20260510062517 68 315 1.0 2.0 0.00 1.07 0.00 100 1009.4
20260510061517 68 0.0 0.0 0.00 1.08 0.00 100 1009.5
20260510060517 68 0.0 0.0 0.00 1.08 0.00 100 1009.8
20260510055517 68 0.0 0.0 0.00 1.08 0.00 100 1009.8
20260510054517 68 0.0 0.0 0.00 1.08 0.00 100 1009.9
20260510053517 68 0.0 0.0 0.00 1.08 0.00 100 1010.0
20260510052517 68 0.0 1.0 0.00 1.08 0.00 100 1010.0
20260510051517 68 0.0 0.0 0.00 1.08 0.00 100 1009.6
20260510050537 68 0.0 1.0 0.00 1.09 0.00 100 1009.4
20260510045536 68 0.0 0.0 0.00 1.09 1.09 100 1009.6
20260510044536 68 0.0 1.0 0.00 1.09 1.09 100 1010.1
20260510043536 68 0.0 1.0 0.00 1.09 1.09 100 1010.0
20260510042516 68 0.0 0.0 0.00 1.09 1.09 100 1010.1
20260510041516 68 0.0 0.0 0.00 1.09 1.09 100 1010.2
20260510040536 68 0.0 0.0 0.00 1.09 1.09 100 1010.5
20260510035516 68 0.0 0.0 0.00 1.09 1.09 100 1010.6
20260510034516 68 0.0 0.0 0.00 1.09 1.09 100 1010.3
20260510033516 68 0.0 0.0 0.00 1.09 1.09 100 1010.6
20260510032516 68 0.0 0.0 0.00 1.09 1.09 100 1010.4
20260510031556 68 0.0 0.0 0.00 1.09 1.09 100 1010.4
20260510030516 68 0.0 0.0 0.00 1.09 1.09 100 1010.2
20260510025535 68 0.0 0.0 0.00 1.09 1.09 100 1010.1
20260510024515 68 0.0 0.0 0.00 1.10 1.09 100 1010.0
20260510023516 68 0.0 0.0 0.00 1.10 1.09 100 1010.0
20260510022515 68 0.0 1.0 0.00 1.10 1.09 100 1009.9
20260510021516 68 0.0 0.0 0.00 1.10 1.09 100 1010.1
20260510020535 68 0.0 1.0 0.01 1.11 1.09 100 1010.0
20260510015515 68 0.0 0.0 0.01 1.11 1.09 100 1010.1
20260510014515 68 0.0 0.0 0.01 1.11 1.09 100 1010.4
20260510013536 68 0.0 0.0 0.01 1.11 1.09 100 1010.4
20260510012517 68 0.0 0.0 0.01 1.11 1.09 100 1010.3
20260510011517 68 0.0 0.0 0.01 1.11 1.09 99 1010.2
20260510010517 68 0.0 0.0 0.00 1.10 1.08 99 1010.3
20260510005517 68 0.0 0.0 0.00 1.10 1.08 99 1010.2
20260510004517 68 0.0 0.0 0.01 1.10 1.08 99 1009.6
20260510003517 68 0.0 0.0 0.01 1.10 1.08 99 1009.4
20260510002517 68 0.0 1.0 0.01 1.10 1.08 99 1009.4
20260510001517 69 0.0 1.0 0.01 1.11 1.08 99 1008.7
20260510000517 69 0.0 1.0 0.01 1.11 1.08 99 1008.7
20260509235517 69 0.0 1.0 0.02 1.11 1.08 99 1008.8
20260509234517 69 0.0 1.0 0.02 1.10 1.07 99 1008.9
20260509233517 69 0.0 0.0 0.02 1.10 1.07 99 1009.0
20260509232517 70 0.0 1.0 0.03 1.10 1.07 99 1009.2